PRIVATE WETTERSTATION BILLIGHEIM-ALLFELD                       ZURCK
Wetterdaten: Montag, 18.08.2014
Datum Zeit Temp. A. Temp. A. min Temp. A. max Feuchte A. Luftdruck Regen Wind Richtung Richtung Sonnenschein ET Solar Taupunkt Windchill Windben Empfang
18.08.2014 00:00 15,7 C 15,6 C 15,7 C 75 % 1010,2 hPa 0,0 l/m 3,4 km/h (1 Bft) S-SW 212 0 min 0,000 mm 0 W/m 11,3 C 15,7 C 16,1 km/h (3 Bft) 100 %
18.08.2014 00:10 15,7 C 15,6 C 15,7 C 76 % 1010,3 hPa 0,0 l/m 3,8 km/h (1 Bft) S-SW 198 0 min 0,000 mm 0 W/m 11,5 C 15,7 C 11,3 km/h (2 Bft) 100 %
18.08.2014 00:20 15,6 C 15,6 C 15,7 C 76 % 1010,2 hPa 0,0 l/m 1,5 km/h (1 Bft) S-SW 195 0 min 0,000 mm 0 W/m 11,4 C 15,6 C 8,0 km/h (2 Bft) 100 %
18.08.2014 00:30 15,6 C 15,6 C 15,7 C 77 % 1010,2 hPa 0,0 l/m 2,2 km/h (1 Bft) S-SW 198 0 min 0,000 mm 0 W/m 11,6 C 15,6 C 11,3 km/h (2 Bft) 100 %
18.08.2014 00:40 15,4 C 15,4 C 15,6 C 77 % 1010,1 hPa 0,0 l/m 1,0 km/h (0 Bft) S-SW 195 0 min 0,000 mm 0 W/m 11,4 C 15,4 C 8,0 km/h (2 Bft) 100 %
18.08.2014 00:50 15,2 C 15,2 C 15,4 C 78 % 1010,1 hPa 0,0 l/m 1,5 km/h (1 Bft) S-SW 196 0 min 0,000 mm 0 W/m 11,4 C 15,2 C 8,0 km/h (2 Bft) 100 %
18.08.2014 01:00 15,2 C 15,2 C 15,2 C 79 % 1010,1 hPa 0,0 l/m 2,6 km/h (1 Bft) S 187 0 min 0,025 mm 0 W/m 11,6 C 15,2 C 9,7 km/h (2 Bft) 100 %
18.08.2014 01:10 15,2 C 15,2 C 15,2 C 79 % 1010,0 hPa 0,0 l/m 2,8 km/h (1 Bft) S 188 0 min 0,000 mm 0 W/m 11,6 C 15,2 C 9,7 km/h (2 Bft) 100 %
18.08.2014 01:20 15,2 C 15,2 C 15,2 C 79 % 1010,0 hPa 0,0 l/m 4,0 km/h (1 Bft) S 172 0 min 0,000 mm 0 W/m 11,6 C 15,2 C 11,3 km/h (2 Bft) 100 %
18.08.2014 01:30 15,2 C 15,2 C 15,2 C 79 % 1009,9 hPa 0,0 l/m 1,9 km/h (1 Bft) S 185 0 min 0,000 mm 0 W/m 11,6 C 15,2 C 9,7 km/h (2 Bft) 100 %
18.08.2014 01:40 15,2 C 15,2 C 15,2 C 79 % 1009,8 hPa 0,0 l/m 2,3 km/h (1 Bft) S 184 0 min 0,000 mm 0 W/m 11,6 C 15,2 C 11,3 km/h (2 Bft) 100 %
18.08.2014 01:50 15,1 C 15,1 C 15,2 C 79 % 1009,9 hPa 0,0 l/m 2,5 km/h (1 Bft) S 185 0 min 0,000 mm 0 W/m 11,5 C 15,1 C 11,3 km/h (2 Bft) 100 %
18.08.2014 02:00 15,1 C 15,1 C 15,1 C 80 % 1009,7 hPa 0,0 l/m 1,9 km/h (1 Bft) S 188 0 min 0,026 mm 0 W/m 11,7 C 15,1 C 9,7 km/h (2 Bft) 100 %
18.08.2014 02:10 15,0 C 14,9 C 15,1 C 80 % 1009,7 hPa 0,0 l/m 2,6 km/h (1 Bft) S 188 0 min 0,000 mm 0 W/m 11,6 C 15,0 C 11,3 km/h (2 Bft) 91 %
18.08.2014 02:20 14,9 C 14,9 C 15,0 C 81 % 1009,6 hPa 0,0 l/m 1,1 km/h (1 Bft) S 184 0 min 0,000 mm 0 W/m 11,7 C 14,9 C 8,0 km/h (2 Bft) 100 %
18.08.2014 02:30 14,9 C 14,9 C 14,9 C 81 % 1009,5 hPa 0,0 l/m 1,5 km/h (1 Bft) S 178 0 min 0,000 mm 0 W/m 11,7 C 14,9 C 8,0 km/h (2 Bft) 100 %
18.08.2014 02:40 14,9 C 14,8 C 14,9 C 81 % 1009,5 hPa 0,0 l/m 2,1 km/h (1 Bft) S-SO 151 0 min 0,000 mm 0 W/m 11,7 C 14,9 C 8,0 km/h (2 Bft) 100 %
18.08.2014 02:50 14,9 C 14,9 C 14,9 C 81 % 1009,5 hPa 0,0 l/m 3,0 km/h (1 Bft) S 191 0 min 0,000 mm 0 W/m 11,7 C 14,9 C 14,5 km/h (3 Bft) 100 %
18.08.2014 03:00 14,8 C 14,8 C 14,9 C 81 % 1009,4 hPa 0,0 l/m 1,9 km/h (1 Bft) S 182 0 min 0,025 mm 0 W/m 11,6 C 14,8 C 9,7 km/h (2 Bft) 100 %
18.08.2014 03:10 14,7 C 14,7 C 14,8 C 81 % 1009,4 hPa 0,0 l/m 2,1 km/h (1 Bft) S 182 0 min 0,000 mm 0 W/m 11,5 C 14,7 C 8,0 km/h (2 Bft) 100 %
18.08.2014 03:20 14,6 C 14,6 C 14,7 C 82 % 1009,3 hPa 0,0 l/m 0,9 km/h (0 Bft) S-SO 156 0 min 0,000 mm 0 W/m 11,6 C 14,6 C 8,0 km/h (2 Bft) 100 %
18.08.2014 03:30 14,6 C 14,5 C 14,6 C 83 % 1009,1 hPa 0,0 l/m 2,0 km/h (1 Bft) S-SO 167 0 min 0,000 mm 0 W/m 11,7 C 14,6 C 11,3 km/h (2 Bft) 100 %
18.08.2014 03:40 14,4 C 14,4 C 14,6 C 83 % 1009,3 hPa 0,0 l/m 3,4 km/h (1 Bft) S 187 0 min 0,000 mm 0 W/m 11,5 C 14,4 C 9,7 km/h (2 Bft) 100 %
18.08.2014 03:50 14,4 C 14,4 C 14,4 C 83 % 1009,2 hPa 0,0 l/m 4,8 km/h (1 Bft) S 187 0 min 0,000 mm 0 W/m 11,5 C 14,4 C 17,7 km/h (3 Bft) 100 %
18.08.2014 04:00 14,5 C 14,4 C 14,5 C 83 % 1009,0 hPa 0,0 l/m 3,7 km/h (1 Bft) S 184 0 min 0,026 mm 0 W/m 11,6 C 14,5 C 14,5 km/h (3 Bft) 100 %
18.08.2014 04:10 14,3 C 14,3 C 14,5 C 83 % 1009,0 hPa 0,0 l/m 4,5 km/h (1 Bft) S-SW 193 0 min 0,000 mm 0 W/m 11,5 C 14,3 C 14,5 km/h (3 Bft) 99 %
18.08.2014 04:20 14,1 C 14,1 C 14,3 C 83 % 1008,9 hPa 0,0 l/m 2,9 km/h (1 Bft) S 176 0 min 0,000 mm 0 W/m 11,3 C 14,1 C 14,5 km/h (3 Bft) 99 %
18.08.2014 04:30 14,0 C 14,0 C 14,1 C 83 % 1009,0 hPa 0,0 l/m 4,6 km/h (1 Bft) S-SW 196 0 min 0,000 mm 0 W/m 11,2 C 14,0 C 16,1 km/h (3 Bft) 99 %
18.08.2014 04:40 13,8 C 13,8 C 14,0 C 83 % 1008,9 hPa 0,0 l/m 1,0 km/h (0 Bft) S-SO 160 0 min 0,000 mm 0 W/m 11,0 C 13,8 C 6,4 km/h (2 Bft) 100 %
18.08.2014 04:50 13,7 C 13,7 C 13,8 C 84 % 1009,0 hPa 0,0 l/m 1,7 km/h (1 Bft) S 186 0 min 0,000 mm 0 W/m 11,0 C 13,7 C 9,7 km/h (2 Bft) 100 %
18.08.2014 05:00 13,7 C 13,7 C 13,7 C 83 % 1009,0 hPa 0,0 l/m 2,5 km/h (1 Bft) S-SW 198 0 min 0,025 mm 0 W/m 10,9 C 13,7 C 9,7 km/h (2 Bft) 100 %
18.08.2014 05:10 13,8 C 13,7 C 13,8 C 82 % 1008,7 hPa 0,0 l/m 4,4 km/h (1 Bft) S-SW 192 0 min 0,000 mm 0 W/m 10,8 C 13,8 C 17,7 km/h (3 Bft) 100 %
18.08.2014 05:20 13,9 C 13,8 C 13,9 C 81 % 1008,8 hPa 0,0 l/m 5,0 km/h (1 Bft) S-SW 213 0 min 0,000 mm 0 W/m 10,7 C 13,9 C 19,3 km/h (3 Bft) 100 %
18.08.2014 05:30 14,2 C 13,9 C 14,2 C 78 % 1008,8 hPa 0,0 l/m 8,2 km/h (2 Bft) SW 223 0 min 0,000 mm 0 W/m 10,4 C 13,2 C 24,1 km/h (4 Bft) 100 %
18.08.2014 05:40 14,6 C 14,2 C 14,6 C 76 % 1008,8 hPa 0,0 l/m 8,2 km/h (2 Bft) W-SW 239 0 min 0,000 mm 0 W/m 10,4 C 13,6 C 22,5 km/h (4 Bft) 100 %
18.08.2014 05:50 14,7 C 14,6 C 14,7 C 76 % 1008,8 hPa 0,0 l/m 7,8 km/h (2 Bft) SW 217 0 min 0,000 mm 0 W/m 10,5 C 13,9 C 19,3 km/h (3 Bft) 100 %
18.08.2014 06:00 14,8 C 14,7 C 14,8 C 76 % 1008,7 hPa 0,0 l/m 9,0 km/h (2 Bft) SW 223 0 min 0,025 mm 0 W/m 10,6 C 13,4 C 20,9 km/h (4 Bft) 100 %
18.08.2014 06:10 14,8 C 14,8 C 14,8 C 76 % 1008,7 hPa 0,0 l/m 11,6 km/h (2 Bft) S 189 0 min 0,000 mm 0 W/m 10,6 C 12,2 C 22,5 km/h (4 Bft) 100 %
18.08.2014 06:20 14,8 C 14,8 C 14,8 C 77 % 1008,7 hPa 0,0 l/m 11,4 km/h (2 Bft) S 175 0 min 0,000 mm 0 W/m 10,8 C 12,3 C 20,9 km/h (4 Bft) 100 %
18.08.2014 06:30 14,7 C 14,7 C 14,8 C 77 % 1008,8 hPa 0,0 l/m 10,7 km/h (2 Bft) S-SW 212 0 min 0,000 mm 5 W/m 10,7 C 12,5 C 20,9 km/h (4 Bft) 100 %
18.08.2014 06:40 14,7 C 14,7 C 14,7 C 76 % 1008,8 hPa 0,0 l/m 12,3 km/h (3 Bft) S-SW 197 0 min 0,000 mm 7 W/m 10,5 C 11,8 C 25,7 km/h (4 Bft) 100 %
18.08.2014 06:50 14,7 C 14,7 C 14,7 C 76 % 1008,8 hPa 0,0 l/m 7,1 km/h (2 Bft) S-SW 196 0 min 0,000 mm 18 W/m 10,5 C 14,3 C 16,1 km/h (3 Bft) 100 %
18.08.2014 07:00 14,6 C 14,6 C 14,7 C 77 % 1008,9 hPa 0,0 l/m 7,2 km/h (2 Bft) S-SW 212 0 min 0,026 mm 26 W/m 10,6 C 14,1 C 17,7 km/h (3 Bft) 100 %
18.08.2014 07:10 14,7 C 14,6 C 14,7 C 75 % 1008,9 hPa 0,0 l/m 13,6 km/h (3 Bft) W-SW 251 0 min 0,000 mm 37 W/m 10,3 C 11,3 C 25,7 km/h (4 Bft) 100 %
18.08.2014 07:20 14,8 C 14,7 C 14,8 C 75 % 1008,9 hPa 0,0 l/m 10,9 km/h (2 Bft) S-SW 207 0 min 0,000 mm 51 W/m 10,4 C 12,5 C 20,9 km/h (4 Bft) 100 %
18.08.2014 07:30 14,8 C 14,8 C 14,8 C 74 % 1008,9 hPa 0,0 l/m 9,8 km/h (2 Bft) S-SW 198 0 min 0,000 mm 62 W/m 10,2 C 13,0 C 22,5 km/h (4 Bft) 100 %
18.08.2014 07:40 14,8 C 14,8 C 14,8 C 75 % 1008,8 hPa 0,0 l/m 11,0 km/h (2 Bft) S-SW 209 0 min 0,000 mm 67 W/m 10,4 C 12,5 C 20,9 km/h (4 Bft) 100 %
18.08.2014 07:50 14,8 C 14,8 C 14,8 C 76 % 1008,9 hPa 0,0 l/m 9,3 km/h (2 Bft) SW 227 0 min 0,000 mm 70 W/m 10,6 C 13,2 C 22,5 km/h (4 Bft) 100 %
18.08.2014 08:00 14,8 C 14,8 C 14,8 C 76 % 1008,8 hPa 0,0 l/m 8,1 km/h (2 Bft) SW 228 0 min 0,076 mm 98 W/m 10,6 C 13,8 C 25,7 km/h (4 Bft) 99 %
18.08.2014 08:10 14,8 C 14,8 C 14,8 C 77 % 1008,9 hPa 0,0 l/m 8,1 km/h (2 Bft) S-SW 213 0 min 0,000 mm 111 W/m 10,8 C 13,8 C 25,7 km/h (4 Bft) 99 %
18.08.2014 08:20 14,9 C 14,8 C 14,9 C 77 % 1008,9 hPa 0,0 l/m 13,4 km/h (3 Bft) W 265 0 min 0,000 mm 128 W/m 10,9 C 11,6 C 27,4 km/h (4 Bft) 100 %
18.08.2014 08:30 14,9 C 14,9 C 15,0 C 76 % 1008,9 hPa 0,0 l/m 14,0 km/h (3 Bft) SW 226 0 min 0,000 mm 86 W/m 10,7 C 11,4 C 22,5 km/h (4 Bft) 99 %
18.08.2014 08:40 14,9 C 14,9 C 15,0 C 77 % 1008,8 hPa 0,0 l/m 8,5 km/h (2 Bft) S-SW 200 0 min 0,000 mm 77 W/m 10,9 C 13,7 C 19,3 km/h (3 Bft) 100 %
18.08.2014 08:50 14,9 C 14,9 C 15,0 C 77 % 1008,8 hPa 0,0 l/m 10,6 km/h (2 Bft) S-SW 213 0 min 0,000 mm 121 W/m 10,9 C 12,7 C 22,5 km/h (4 Bft) 100 %
18.08.2014 09:00 15,1 C 14,9 C 15,1 C 77 % 1008,8 hPa 0,0 l/m 7,4 km/h (2 Bft) SW 219 0 min 0,076 mm 109 W/m 11,1 C 14,5 C 17,7 km/h (3 Bft) 100 %
18.08.2014 09:10 15,1 C 15,1 C 15,1 C 77 % 1008,8 hPa 0,0 l/m 10,1 km/h (2 Bft) S-SW 193 0 min 0,000 mm 141 W/m 11,1 C 13,2 C 20,9 km/h (4 Bft) 100 %
18.08.2014 09:20 15,1 C 15,1 C 15,1 C 76 % 1008,9 hPa 0,0 l/m 12,8 km/h (3 Bft) SW 229 0 min 0,000 mm 76 W/m 10,9 C 12,1 C 27,4 km/h (4 Bft) 100 %
18.08.2014 09:30 15,1 C 15,1 C 15,1 C 77 % 1008,8 hPa 0,0 l/m 9,5 km/h (2 Bft) S-SW 211 0 min 0,000 mm 84 W/m 11,1 C 13,5 C 20,9 km/h (4 Bft) 100 %
18.08.2014 09:40 15,1 C 15,1 C 15,1 C 77 % 1008,8 hPa 0,0 l/m 10,2 km/h (2 Bft) S-SW 192 0 min 0,000 mm 104 W/m 11,1 C 13,1 C 24,1 km/h (4 Bft) 100 %
18.08.2014 09:50 15,1 C 15,1 C 15,1 C 75 % 1008,8 hPa 0,0 l/m 11,3 km/h (2 Bft) S-SW 200 0 min 0,000 mm 90 W/m 10,7 C 12,7 C 32,2 km/h (5 Bft) 100 %
18.08.2014 10:00 15,1 C 15,1 C 15,1 C 75 % 1008,8 hPa 0,0 l/m 15,5 km/h (3 Bft) S-SW 205 0 min 0,076 mm 95 W/m 10,7 C 11,2 C 29,0 km/h (5 Bft) 100 %
18.08.2014 10:10 15,1 C 15,1 C 15,1 C 76 % 1008,9 hPa 0,0 l/m 13,1 km/h (3 Bft) S-SW 201 0 min 0,000 mm 93 W/m 10,9 C 12,0 C 24,1 km/h (4 Bft) 100 %
18.08.2014 10:20 15,1 C 15,1 C 15,1 C 76 % 1008,9 hPa 0,0 l/m 14,4 km/h (3 Bft) S 178 0 min 0,000 mm 146 W/m 10,9 C 11,5 C 25,7 km/h (4 Bft) 100 %
18.08.2014 10:30 15,2 C 15,1 C 15,2 C 76 % 1008,9 hPa 0,0 l/m 12,7 km/h (3 Bft) S-SW 194 10 min 0,000 mm 211 W/m 11,0 C 12,2 C 24,1 km/h (4 Bft) 100 %
18.08.2014 10:40 15,5 C 15,2 C 15,5 C 76 % 1008,9 hPa 0,0 l/m 14,3 km/h (3 Bft) S-SW 199 10 min 0,000 mm 274 W/m 11,3 C 12,0 C 24,1 km/h (4 Bft) 100 %
18.08.2014 10:50 15,8 C 15,5 C 15,8 C 75 % 1008,8 hPa 0,0 l/m 14,5 km/h (3 Bft) S-SW 210 10 min 0,000 mm 262 W/m 11,4 C 12,3 C 25,7 km/h (4 Bft) 99 %
18.08.2014 11:00 16,1 C 15,8 C 16,1 C 73 % 1008,9 hPa 0,0 l/m 13,8 km/h (3 Bft) S-SW 200 10 min 0,153 mm 246 W/m 11,3 C 12,9 C 27,4 km/h (4 Bft) 99 %
18.08.2014 11:10 16,1 C 16,1 C 16,1 C 73 % 1008,9 hPa 0,0 l/m 15,1 km/h (3 Bft) W-SW 251 10 min 0,000 mm 230 W/m 11,3 C 12,5 C 38,6 km/h (5 Bft) 100 %
18.08.2014 11:20 16,3 C 16,1 C 16,3 C 71 % 1008,9 hPa 0,0 l/m 15,9 km/h (3 Bft) W-SW 247 10 min 0,000 mm 264 W/m 11,0 C 12,5 C 32,2 km/h (5 Bft) 100 %
18.08.2014 11:30 16,4 C 16,3 C 16,4 C 71 % 1008,9 hPa 0,0 l/m 19,4 km/h (3 Bft) SW 224 10 min 0,000 mm 237 W/m 11,1 C 11,7 C 37,0 km/h (5 Bft) 100 %
18.08.2014 11:40 16,5 C 16,3 C 16,5 C 72 % 1009,0 hPa 0,0 l/m 17,8 km/h (3 Bft) SW 217 10 min 0,000 mm 248 W/m 11,4 C 12,2 C 37,0 km/h (5 Bft) 100 %
18.08.2014 11:50 16,6 C 16,5 C 16,6 C 70 % 1009,0 hPa 0,0 l/m 16,7 km/h (3 Bft) SW 230 10 min 0,000 mm 279 W/m 11,1 C 12,6 C 33,8 km/h (5 Bft) 99 %
18.08.2014 12:00 16,6 C 16,6 C 16,6 C 71 % 1009,1 hPa 0,0 l/m 15,3 km/h (3 Bft) W-SW 254 0 min 0,203 mm 77 W/m 11,3 C 13,0 C 35,4 km/h (5 Bft) 100 %
18.08.2014 12:10 16,3 C 16,3 C 16,6 C 70 % 1009,1 hPa 0,0 l/m 17,1 km/h (3 Bft) W 263 0 min 0,000 mm 141 W/m 10,8 C 12,2 C 32,2 km/h (5 Bft) 100 %
18.08.2014 12:20 16,3 C 16,2 C 16,3 C 71 % 1009,1 hPa 0,0 l/m 13,9 km/h (3 Bft) W-SW 244 10 min 0,000 mm 192 W/m 11,0 C 13,1 C 32,2 km/h (5 Bft) 100 %
18.08.2014 12:30 16,3 C 16,3 C 16,3 C 72 % 1009,1 hPa 0,0 l/m 15,4 km/h (3 Bft) W 271 0 min 0,000 mm 135 W/m 11,2 C 12,6 C 32,2 km/h (5 Bft) 99 %
18.08.2014 12:40 16,2 C 16,2 C 16,3 C 73 % 1009,0 hPa 0,0 l/m 14,4 km/h (3 Bft) S-SW 199 0 min 0,000 mm 114 W/m 11,4 C 12,8 C 33,8 km/h (5 Bft) 100 %
18.08.2014 12:50 16,1 C 16,1 C 16,2 C 74 % 1009,0 hPa 0,0 l/m 10,2 km/h (2 Bft) SW 235 0 min 0,000 mm 70 W/m 11,5 C 14,2 C 22,5 km/h (4 Bft) 100 %
18.08.2014 13:00 16,0 C 16,0 C 16,1 C 74 % 1009,0 hPa 0,0 l/m 8,0 km/h (2 Bft) S-SW 196 10 min 0,127 mm 178 W/m 11,4 C 15,2 C 22,5 km/h (4 Bft) 100 %
18.08.2014 13:10 16,2 C 16,0 C 16,2 C 75 % 1009,0 hPa 0,0 l/m 9,4 km/h (2 Bft) W-SW 250 10 min 0,000 mm 185 W/m 11,8 C 14,7 C 24,1 km/h (4 Bft) 100 %
18.08.2014 13:20 16,3 C 16,2 C 16,3 C 74 % 1008,9 hPa 0,0 l/m 9,8 km/h (2 Bft) SW 219 0 min 0,000 mm 97 W/m 11,7 C 14,6 C 25,7 km/h (4 Bft) 100 %
18.08.2014 13:30 16,3 C 16,3 C 16,3 C 72 % 1008,8 hPa 0,0 l/m 13,5 km/h (3 Bft) S-SW 208 0 min 0,000 mm 98 W/m 11,2 C 13,2 C 25,7 km/h (4 Bft) 100 %
18.08.2014 13:40 16,3 C 16,3 C 16,3 C 73 % 1008,7 hPa 0,0 l/m 12,5 km/h (3 Bft) W-SW 238 0 min 0,000 mm 97 W/m 11,4 C 13,6 C 25,7 km/h (4 Bft) 100 %
18.08.2014 13:50 16,3 C 16,3 C 16,3 C 72 % 1008,9 hPa 0,0 l/m 13,1 km/h (3 Bft) W 261 0 min 0,000 mm 81 W/m 11,2 C 13,4 C 30,6 km/h (5 Bft) 100 %
18.08.2014 14:00 16,3 C 16,3 C 16,3 C 73 % 1009,0 hPa 0,0 l/m 11,1 km/h (2 Bft) S-SW 212 10 min 0,102 mm 158 W/m 11,4 C 14,1 C 27,4 km/h (4 Bft) 100 %
18.08.2014 14:10 16,5 C 16,3 C 16,5 C 73 % 1008,9 hPa 0,0 l/m 15,0 km/h (3 Bft) W-SW 257 10 min 0,000 mm 225 W/m 11,6 C 13,0 C 33,8 km/h (5 Bft) 100 %
18.08.2014 14:20 16,6 C 16,5 C 16,6 C 73 % 1009,0 hPa 0,0 l/m 14,5 km/h (3 Bft) W-SW 258 0 min 0,000 mm 93 W/m 11,7 C 13,3 C 29,0 km/h (5 Bft) 100 %
18.08.2014 14:30 16,4 C 16,3 C 16,6 C 76 % 1009,1 hPa 0,0 l/m 14,6 km/h (3 Bft) W-NW 290 0 min 0,000 mm 127 W/m 12,2 C 13,0 C 35,4 km/h (5 Bft) 100 %
18.08.2014 14:40 15,9 C 15,9 C 16,4 C 77 % 1009,3 hPa 0,0 l/m 12,6 km/h (3 Bft) W 261 0 min 0,000 mm 141 W/m 11,9 C 13,1 C 27,4 km/h (4 Bft) 100 %
18.08.2014 14:50 15,6 C 15,6 C 15,9 C 80 % 1009,4 hPa 0,0 l/m 11,4 km/h (2 Bft) W-NW 288 0 min 0,000 mm 125 W/m 12,2 C 13,2 C 24,1 km/h (4 Bft) 99 %
18.08.2014 15:00 15,4 C 15,4 C 15,6 C 79 % 1009,3 hPa 0,0 l/m 9,3 km/h (2 Bft) W-NW 285 10 min 0,127 mm 165 W/m 11,8 C 13,9 C 22,5 km/h (4 Bft) 100 %
18.08.2014 15:10 15,3 C 15,3 C 15,4 C 79 % 1009,6 hPa 0,0 l/m 13,5 km/h (3 Bft) W-NW 294 0 min 0,000 mm 127 W/m 11,7 C 12,1 C 29,0 km/h (5 Bft) 100 %
18.08.2014 15:20 15,1 C 15,1 C 15,3 C 80 % 1009,5 hPa 0,0 l/m 14,3 km/h (3 Bft) NW 314 0 min 0,000 mm 132 W/m 11,7 C 11,5 C 33,8 km/h (5 Bft) 99 %
18.08.2014 15:30 15,1 C 15,1 C 15,1 C 81 % 1009,4 hPa 0,0 l/m 8,3 km/h (2 Bft) W-SW 252 0 min 0,000 mm 141 W/m 11,9 C 14,0 C 20,9 km/h (4 Bft) 99 %
18.08.2014 15:40 15,1 C 15,1 C 15,1 C 83 % 1009,5 hPa 0,0 l/m 6,9 km/h (2 Bft) NW 311 10 min 0,000 mm 221 W/m 12,2 C 14,8 C 22,5 km/h (4 Bft) 100 %
18.08.2014 15:50 15,1 C 15,1 C 15,1 C 83 % 1009,8 hPa 0,0 l/m 8,5 km/h (2 Bft) W-SW 240 0 min 0,000 mm 146 W/m 12,2 C 13,9 C 17,7 km/h (3 Bft) 100 %
18.08.2014 16:00 15,0 C 15,0 C 15,1 C 81 % 1009,8 hPa 0,0 l/m 12,3 km/h (3 Bft) W 259 10 min 0,101 mm 178 W/m 11,8 C 12,2 C 25,7 km/h (4 Bft) 100 %
18.08.2014 16:10 14,9 C 14,9 C 15,0 C 81 % 1010,0 hPa 0,0 l/m 12,4 km/h (3 Bft) W 259 0 min 0,000 mm 128 W/m 11,7 C 12,0 C 29,0 km/h (5 Bft) 100 %
18.08.2014 16:20 14,9 C 14,8 C 14,9 C 80 % 1010,0 hPa 0,0 l/m 11,4 km/h (2 Bft) W-SW 255 10 min 0,000 mm 179 W/m 11,5 C 12,4 C 25,7 km/h (4 Bft) 100 %
18.08.2014 16:30 15,0 C 14,9 C 15,0 C 81 % 1010,0 hPa 0,0 l/m 7,6 km/h (2 Bft) W 260 0 min 0,000 mm 149 W/m 11,8 C 14,3 C 16,1 km/h (3 Bft) 99 %
18.08.2014 16:40 15,0 C 15,0 C 15,1 C 80 % 1010,0 hPa 0,0 l/m 10,6 km/h (2 Bft) W 261 0 min 0,000 mm 148 W/m 11,6 C 12,9 C 27,4 km/h (4 Bft) 100 %
18.08.2014 16:50 15,1 C 15,0 C 15,1 C 81 % 1010,1 hPa 0,0 l/m 9,3 km/h (2 Bft) W-NW 303 0 min 0,000 mm 141 W/m 11,9 C 13,6 C 22,5 km/h (4 Bft) 100 %
18.08.2014 17:00 14,9 C 14,9 C 15,1 C 80 % 1010,1 hPa 0,0 l/m 11,4 km/h (2 Bft) W 262 0 min 0,102 mm 127 W/m 11,5 C 12,4 C 29,0 km/h (5 Bft) 99 %
18.08.2014 17:10 14,8 C 14,8 C 14,9 C 81 % 1010,2 hPa 0,0 l/m 5,5 km/h (1 Bft) W 262 0 min 0,000 mm 81 W/m 11,6 C 14,8 C 16,1 km/h (3 Bft) 100 %
18.08.2014 17:20 14,8 C 14,8 C 14,8 C 82 % 1010,3 hPa 0,0 l/m 9,1 km/h (2 Bft) W-SW 248 0 min 0,000 mm 104 W/m 11,8 C 13,3 C 27,4 km/h (4 Bft) 100 %
18.08.2014 17:30 14,4 C 14,4 C 14,8 C 82 % 1010,3 hPa 0,0 l/m 10,8 km/h (2 Bft) W-NW 285 0 min 0,000 mm 77 W/m 11,4 C 12,1 C 25,7 km/h (4 Bft) 100 %
18.08.2014 17:40 14,2 C 14,2 C 14,4 C 84 % 1010,6 hPa 0,0 l/m 9,3 km/h (2 Bft) W 265 0 min 0,000 mm 62 W/m 11,5 C 12,6 C 24,1 km/h (4 Bft) 100 %
18.08.2014 17:50 13,9 C 13,9 C 14,2 C 84 % 1010,6 hPa 0,0 l/m 11,2 km/h (2 Bft) S-SW 209 0 min 0,000 mm 53 W/m 11,2 C 11,3 C 29,0 km/h (5 Bft) 99 %
18.08.2014 18:00 13,5 C 13,5 C 13,9 C 86 % 1010,3 hPa 0,2 l/m 9,3 km/h (2 Bft) S-SW 212 0 min 0,051 mm 69 W/m 11,2 C 11,8 C 29,0 km/h (5 Bft) 99 %
18.08.2014 18:10 13,3 C 13,3 C 13,5 C 86 % 1010,5 hPa 0,0 l/m 5,4 km/h (1 Bft) W-SW 248 0 min 0,000 mm 128 W/m 11,0 C 13,3 C 16,1 km/h (3 Bft) 97 %
18.08.2014 18:20 13,4 C 13,3 C 13,4 C 87 % 1010,5 hPa 0,0 l/m 5,3 km/h (1 Bft) SW 224 0 min 0,000 mm 144 W/m 11,3 C 13,4 C 16,1 km/h (3 Bft) 98 %
18.08.2014 18:30 13,5 C 13,4 C 13,5 C 87 % 1010,6 hPa 0,2 l/m 5,3 km/h (1 Bft) S-SW 200 0 min 0,000 mm 125 W/m 11,4 C 13,5 C 14,5 km/h (3 Bft) 98 %
18.08.2014 18:40 13,7 C 13,5 C 13,7 C 87 % 1010,6 hPa 0,0 l/m 4,4 km/h (1 Bft) S-SW 198 0 min 0,000 mm 127 W/m 11,6 C 13,7 C 14,5 km/h (3 Bft) 97 %
18.08.2014 18:50 13,8 C 13,7 C 13,8 C 86 % 1010,6 hPa 0,0 l/m 9,3 km/h (2 Bft) SW 235 0 min 0,000 mm 54 W/m 11,5 C 12,1 C 19,3 km/h (3 Bft) 98 %
18.08.2014 19:00 13,7 C 13,7 C 13,8 C 86 % 1010,7 hPa 0,0 l/m 7,8 km/h (2 Bft) SW 220 0 min 0,050 mm 63 W/m 11,4 C 12,9 C 17,7 km/h (3 Bft) 98 %
18.08.2014 19:10 13,7 C 13,7 C 13,7 C 86 % 1010,9 hPa 0,0 l/m 6,4 km/h (2 Bft) S-SW 204 0 min 0,000 mm 95 W/m 11,4 C 13,7 C 17,7 km/h (3 Bft) 98 %
18.08.2014 19:20 13,8 C 13,7 C 13,8 C 86 % 1010,7 hPa 0,0 l/m 7,9 km/h (2 Bft) W-SW 237 0 min 0,000 mm 58 W/m 11,5 C 12,9 C 19,3 km/h (3 Bft) 97 %
18.08.2014 19:30 13,8 C 13,8 C 13,8 C 85 % 1010,6 hPa 0,0 l/m 9,9 km/h (2 Bft) W-SW 244 0 min 0,000 mm 35 W/m 11,3 C 11,8 C 24,1 km/h (4 Bft) 98 %
18.08.2014 19:40 13,8 C 13,8 C 13,8 C 86 % 1010,6 hPa 0,0 l/m 7,0 km/h (2 Bft) S 187 0 min 0,000 mm 39 W/m 11,5 C 13,4 C 16,1 km/h (3 Bft) 97 %
18.08.2014 19:50 13,7 C 13,7 C 13,8 C 85 % 1010,6 hPa 0,0 l/m 11,0 km/h (2 Bft) SW 221 0 min 0,000 mm 33 W/m 11,2 C 11,2 C 20,9 km/h (4 Bft) 98 %
18.08.2014 20:00 13,6 C 13,6 C 13,7 C 85 % 1010,7 hPa 0,0 l/m 10,0 km/h (2 Bft) S-SO 154 0 min 0,051 mm 23 W/m 11,1 C 11,6 C 19,3 km/h (3 Bft) 97 %
18.08.2014 20:10 13,4 C 13,4 C 13,6 C 85 % 1010,9 hPa 0,0 l/m 8,9 km/h (2 Bft) S-SW 211 0 min 0,000 mm 14 W/m 10,9 C 11,9 C 20,9 km/h (4 Bft) 97 %
18.08.2014 20:20 13,2 C 13,2 C 13,4 C 85 % 1011,0 hPa 0,0 l/m 4,0 km/h (1 Bft) SW 231 0 min 0,000 mm 9 W/m 10,7 C 13,2 C 19,3 km/h (3 Bft) 97 %
18.08.2014 20:30 13,0 C 13,0 C 13,2 C 86 % 1011,0 hPa 0,0 l/m 2,5 km/h (1 Bft) S-SW 209 0 min 0,000 mm 0 W/m 10,7 C 13,0 C 14,5 km/h (3 Bft) 97 %
18.08.2014 20:40 12,7 C 12,7 C 13,0 C 86 % 1011,0 hPa 0,0 l/m 2,3 km/h (1 Bft) S-SW 192 0 min 0,000 mm 0 W/m 10,4 C 12,7 C 9,7 km/h (2 Bft) 98 %
18.08.2014 20:50 12,4 C 12,4 C 12,7 C 87 % 1011,0 hPa 0,0 l/m 1,6 km/h (1 Bft) S 177 0 min 0,000 mm 0 W/m 10,3 C 12,4 C 8,0 km/h (2 Bft) 89 %
18.08.2014 21:00 12,3 C 12,3 C 12,4 C 87 % 1011,0 hPa 0,0 l/m 1,1 km/h (1 Bft) S-SO 158 0 min 0,000 mm 0 W/m 10,2 C 12,3 C 8,0 km/h (2 Bft) 97 %
18.08.2014 21:10 12,2 C 12,2 C 12,3 C 87 % 1011,3 hPa 0,0 l/m 1,0 km/h (0 Bft) S-SO 162 0 min 0,000 mm 0 W/m 10,1 C 12,2 C 6,4 km/h (2 Bft) 98 %
18.08.2014 21:20 12,1 C 12,1 C 12,2 C 87 % 1011,3 hPa 0,0 l/m 0,2 km/h (0 Bft) S-SO 153 0 min 0,000 mm 0 W/m 10,0 C 12,1 C 4,8 km/h (1 Bft) 97 %
18.08.2014 21:30 12,0 C 11,9 C 12,1 C 87 % 1011,4 hPa 0,0 l/m 3,4 km/h (1 Bft) S-SO 158 0 min 0,000 mm 0 W/m 9,9 C 12,0 C 9,7 km/h (2 Bft) 98 %
18.08.2014 21:40 11,8 C 11,8 C 12,0 C 87 % 1011,4 hPa 0,0 l/m 2,2 km/h (1 Bft) S 172 0 min 0,000 mm 0 W/m 9,7 C 11,8 C 8,0 km/h (2 Bft) 97 %
18.08.2014 21:50 11,7 C 11,7 C 11,8 C 87 % 1011,3 hPa 0,0 l/m 0,0 km/h (0 Bft) S-SO 154 0 min 0,000 mm 0 W/m 9,6 C 11,7 C 1,6 km/h (1 Bft) 97 %
18.08.2014 22:00 11,6 C 11,6 C 11,7 C 87 % 1011,3 hPa 0,0 l/m 2,3 km/h (1 Bft) S-SO 148 0 min 0,000 mm 0 W/m 9,5 C 11,6 C 8,0 km/h (2 Bft) 97 %
18.08.2014 22:10 11,5 C 11,5 C 11,6 C 87 % 1011,3 hPa 0,0 l/m 1,7 km/h (1 Bft) S-SO 155 0 min 0,000 mm 0 W/m 9,4 C 11,5 C 6,4 km/h (2 Bft) 97 %
18.08.2014 22:20 11,4 C 11,4 C 11,5 C 87 % 1011,3 hPa 0,0 l/m 0,0 km/h (0 Bft) S-SO 157 0 min 0,000 mm 0 W/m 9,3 C 11,4 C 3,2 km/h (1 Bft) 97 %
18.08.2014 22:30 11,4 C 11,4 C 11,4 C 87 % 1011,3 hPa 0,0 l/m 1,5 km/h (1 Bft) S 170 0 min 0,000 mm 0 W/m 9,3 C 11,4 C 8,0 km/h (2 Bft) 98 %
18.08.2014 22:40 11,4 C 11,4 C 11,4 C 87 % 1011,4 hPa 0,0 l/m 0,9 km/h (0 Bft) S-SO 150 0 min 0,000 mm 0 W/m 9,3 C 11,4 C 8,0 km/h (2 Bft) 97 %
18.08.2014 22:50 11,4 C 11,4 C 11,4 C 87 % 1011,5 hPa 0,0 l/m 0,0 km/h (0 Bft) S-SO 150 0 min 0,000 mm 0 W/m 9,3 C 11,4 C 1,6 km/h (1 Bft) 97 %
18.08.2014 23:00 11,4 C 11,4 C 11,4 C 87 % 1011,4 hPa 0,0 l/m 0,2 km/h (0 Bft) W 267 0 min 0,000 mm 0 W/m 9,3 C 11,4 C 4,8 km/h (1 Bft) 97 %
18.08.2014 23:10 11,4 C 11,4 C 11,4 C 87 % 1011,4 hPa 0,0 l/m 0,8 km/h (0 Bft) W-NW 285 0 min 0,000 mm 0 W/m 9,3 C 11,4 C 6,4 km/h (2 Bft) 97 %
18.08.2014 23:20 11,4 C 11,4 C 11,4 C 87 % 1011,5 hPa 0,0 l/m 0,4 km/h (0 Bft) NW 309 0 min 0,000 mm 0 W/m 9,3 C 11,4 C 8,0 km/h (2 Bft) 97 %
18.08.2014 23:30 11,4 C 11,4 C 11,5 C 87 % 1011,4 hPa 0,0 l/m 0,1 km/h (0 Bft) NW 309 0 min 0,000 mm 0 W/m 9,3 C 11,4 C 3,2 km/h (1 Bft) 97 %
18.08.2014 23:40 11,4 C 11,4 C 11,4 C 87 % 1011,4 hPa 0,0 l/m 0,0 km/h (0 Bft) NW 309 0 min 0,000 mm 0 W/m 9,3 C 11,4 C 1,6 km/h (1 Bft) 97 %
18.08.2014 23:50 11,3 C 11,3 C 11,4 C 88 % 1011,5 hPa 0,0 l/m 0,7 km/h (0 Bft) NW 309 0 min 0,000 mm 0 W/m 9,4 C 11,3 C 3,2 km/h (1 Bft) 96 %
_ Min-Zeit 23:50 23:50 22:30 11:50 05:10 - 21:50 - - - - - 22:20 10:00 21:50 20:50
Minimum _ 11,3 C 11,3 C 11,4 C 70 % 1008,7 hPa - 0,0 km/h (0 Bft) - - - - - 9,3 C 11,2 C 1,6 km/h (1 Bft) 89 %
_ Max-Zeit 11:50 12:00 11:50 23:50 22:50 18:00 11:30 - - 10:30 12:00 11:50 15:40 00:00 11:10 00:00
Maximum _ 16,6 C 16,6 C 16,6 C 88 % 1011,5 hPa 0,2 l/m 19,4 km/h
SW (3 Bft)
- - 10 min 0,203 mm 279 W/m 12,2 C 15,7 C 38,6 km/h
S-SW (5 Bft)
100 %
Durchschnitt _ 14,5 C 14,5 C 14,6 C 80 % 1009,7 hPa #0,4 l/m 7,6 km/h (2 Bft) S-SW - #3:00 h #1,473 mm 117 W/m 11,0 C 13,2 C 18,9 km/h (3 Bft) 99 %
PRIVATE WETTERSTATION BILLIGHEIM-ALLFELD - www.neckar-odenwald-wetter.de - Holger Sonntag